[[{"header":{"parameterUnit":"m.s-1","parameterCategory":2,"la1":30.2991,"la2":30.254,"lo1":-89.0895,"lo2":-89.0444,"dy":0.0017,"dx":0.0017,"nx":28,"ny":28,"refTime":"2025-08-04T09:00:00:Z","depth":"0","parameterNumber":2,"parameterNumberName":"U-component_of_CURRENTS"},"data":[0,0,0,0,0,0,0,0,0,0,0,0,0,0,0,0,0,0,0,0,0,0,0,0,0,0,0,0,0,0,0,0,0,0,0,0,0,0,0,0,0,0,0,0,0,0,0,0,0,0,0,0,0,0,0,0,0,0,-0.3409,-0.3409,0,-0.3481,-0.3482,-0.3483,-0.3494,-0.3493,-0.3493,-0.3492,-0.3453,-0.3453,-0.3452,0,0,0,0,0,0,0,0,0,0,0,0,0,-0.323,-0.3233,-0.3408,-0.3409,-0.3411,-0.3481,-0.3482,-0.3483,-0.3494,-0.3493,-0.3493,-0.3492,-0.3454,-0.3453,-0.3452,0,0,0,0,0,0,0,0,0,0,0,0,0,-0.3304,-0.3234,-0.3408,-0.3425,-0.3428,-0.3481,-0.3482,-0.3483,-0.3494,-0.3493,-0.3492,-0.3492,-0.3454,-0.3453,-0.3452,-0.3464,0,0,-0.345,-0.3449,0,0,0,0,0,0,0,0,-0.33,-0.3311,-0.3422,-0.3424,-0.3427,-0.3479,-0.3405,-0.3472,-0.3494,-0.3468,-0.3492,-0.3491,-0.3453,-0.3452,-0.3468,-0.3462,-0.346,-0.345,-0.3449,-0.3449,-0.3449,0,0,0,0,0,0,0,-0.3295,-0.3307,-0.3436,-0.3423,-0.3426,-0.3412,-0.3422,-0.3418,-0.3461,-0.347,-0.3471,-0.3481,-0.3453,-0.3468,-0.3466,-0.346,-0.345,-0.3449,-0.3449,-0.3448,-0.3417,-0.3416,0,0,0,0,0,0,-0.3293,-0.3303,-0.3434,-0.3438,-0.3362,-0.3417,-0.3428,-0.3462,-0.3463,-0.3464,-0.3482,-0.3482,-0.347,-0.3467,-0.3465,-0.3407,-0.3449,-0.3448,-0.3448,-0.3417,-0.3417,-0.3416,0,0,0,0,0,0,-0.3289,-0.3305,-0.3431,-0.3371,-0.3387,-0.3421,-0.3459,-0.3464,-0.3474,-0.3474,-0.3472,-0.3487,-0.3469,-0.3466,-0.3468,-0.3408,-0.3448,-0.3447,-0.3417,-0.3417,-0.3416,-0.3337,0,0,0,0,0,0,-0.3284,-0.3304,-0.3317,-0.3372,-0.339,-0.3447,-0.346,-0.3466,-0.3483,-0.3483,-0.3478,-0.3474,-0.3468,-0.347,-0.3468,-0.3408,-0.3447,-0.3418,-0.3417,-0.3416,-0.334,-0.3333,-0.3328,0,0,0,0,0,-0.3278,-0.329,-0.3318,-0.3333,-0.3412,-0.3447,-0.3454,-0.3474,-0.3484,-0.3482,-0.3495,-0.3474,-0.3462,-0.347,-0.3467,-0.3405,-0.3418,-0.3417,-0.3417,-0.3342,-0.3335,-0.3328,0,0,0,0,0,0,-0.3194,-0.3295,-0.3326,-0.3362,-0.34,-0.3449,-0.3446,-0.3474,-0.3487,-0.3484,-0.3487,-0.3484,-0.3448,-0.3461,-0.347,-0.3399,-0.3429,-0.3428,-0.3374,-0.3366,-0.3361,-0.3288,-0.3446,0,0,0,0,0,-0.3193,-0.3233,-0.3315,-0.3331,-0.3358,-0.3407,-0.3421,-0.3445,-0.347,-0.3476,-0.3476,-0.3471,-0.3446,-0.3437,-0.3423,-0.3404,-0.3374,-0.3361,-0.3355,-0.3349,-0.3292,-0.3225,-0.3206,-0.3413,-0.3413,-0.3413,0,0,-0.3147,-0.3217,-0.3228,-0.3316,-0.3347,-0.3347,-0.3412,-0.3435,-0.3418,-0.3467,-0.3437,-0.3447,-0.3438,-0.3402,-0.3386,-0.3404,-0.3284,-0.3348,-0.3343,-0.3287,-0.3222,-0.3201,-0.3183,-0.3413,-0.3413,-0.3413,0,0,-0.3049,-0.3159,-0.314,-0.3191,-0.3256,-0.3302,-0.3309,-0.3369,-0.3383,-0.3391,-0.3394,-0.3376,-0.3376,-0.3335,-0.3318,-0.3277,-0.3251,-0.3283,-0.3191,-0.3129,-0.3109,-0.3092,-0.3056,-0.3035,-0.3284,-0.3284,-0.3284,0,-0.2961,-0.3002,-0.3129,-0.3128,-0.3148,-0.3273,-0.3237,-0.3279,-0.3323,-0.3314,-0.3365,-0.3319,-0.3322,-0.3229,-0.3214,-0.3249,-0.3229,-0.3216,-0.3115,-0.3097,-0.308,-0.3047,-0.3025,-0.328,-0.328,-0.3281,-0.3281,0,-0.2859,-0.2892,-0.2889,-0.2941,-0.2978,-0.2987,-0.3075,-0.31,-0.3157,-0.3183,-0.3145,-0.3174,-0.3136,-0.314,-0.3162,-0.3039,-0.3069,-0.311,-0.3121,-0.3053,-0.3025,-0.3004,-0.3274,-0.3276,-0.3277,-0.3278,0,0,-0.2644,-0.2777,-0.2773,-0.2799,-0.2897,-0.2926,-0.2912,-0.2935,-0.2927,-0.2974,-0.2924,-0.2899,-0.2937,-0.2919,-0.2948,-0.2898,-0.279,-0.2949,-0.2948,-0.289,-0.2662,-0.2625,-0.2599,-0.2817,-0.2812,-0.2808,-0.2699,0,-0.2501,-0.2491,-0.2582,-0.2561,-0.2582,-0.2702,-0.269,-0.2736,-0.2795,-0.2795,-0.2817,-0.2801,-0.2852,-0.2853,-0.2796,-0.2811,-0.2725,-0.2815,-0.2753,-0.275,-0.2705,-0.2569,-0.2478,-0.2365,-0.2678,-0.2675,-0.2672,0,-0.2371,-0.2404,-0.2357,-0.2453,-0.2464,-0.2456,-0.2508,-0.2517,-0.2553,-0.2596,-0.2578,-0.2632,-0.2573,-0.2645,-0.2555,-0.262,-0.2591,-0.2597,-0.2595,-0.2553,-0.267,-0.248,-0.2316,-0.2308,-0.264,-0.2643,-0.2645,0,-0.2238,-0.2261,-0.2237,-0.2266,-0.236,-0.2342,-0.2383,-0.2433,-0.2463,-0.247,-0.2497,-0.245,-0.247,-0.2409,-0.2452,-0.2493,-0.2363,-0.2435,-0.2348,-0.235,-0.2247,-0.2245,-0.2032,-0.2276,-0.2276,-0.2277,-0.2277,0,-0.2115,-0.2103,-0.2183,-0.2189,-0.217,-0.2258,-0.2242,-0.2283,-0.2325,-0.2339,-0.2391,-0.239,-0.2411,-0.2387,-0.2377,-0.2301,-0.2298,-0.2258,-0.228,-0.2225,-0.2222,-0.2195,-0.2238,-0.2273,-0.2274,-0.2274,-0.2275,0,-0.2002,-0.2045,-0.2049,-0.2109,-0.2125,-0.2124,-0.2205,-0.2205,-0.2261,-0.2275,-0.2281,-0.2337,-0.2303,-0.231,-0.2242,-0.2223,-0.2107,-0.211,-0.2058,-0.2072,-0.1981,-0.2025,-0.1811,-0.1761,-0.197,-0.1968,-0.1966,0,-0.1949,-0.1937,-0.1995,-0.1998,-0.2022,-0.2047,-0.2066,-0.2155,-0.2175,-0.2243,-0.2236,-0.223,-0.2197,-0.2107,-0.2061,-0.1973,-0.1992,-0.1842,-0.1863,-0.1881,-0.1948,-0.1992,-0.1971,-0.1723,-0.1719,-0.1716,-0.1714,0,-0.1846,-0.1867,-0.1877,-0.1893,-0.1908,-0.1949,-0.1988,-0.2011,-0.2104,-0.211,-0.2107,-0.2076,-0.2016,-0.1899,-0.1819,-0.1767,-0.1798,-0.1776,-0.178,-0.1676,-0.1717,-0.1716,-0.1937,-0.1687,-0.169,-0.1692,-0.1693,-0.1694,-0.176,-0.1748,-0.1763,-0.1772,-0.1808,-0.1841,-0.1841,-0.1893,-0.191,-0.1915,-0.194,-0.1862,-0.1784,-0.1656,-0.1607,-0.1512,-0.1582,-0.1472,-0.151,-0.1543,-0.1499,-0.1661,-0.1458,-0.1459,-0.146,-0.1461,-0.1462,0,-0.1643,-0.164,-0.1642,-0.168,-0.1717,-0.175,-0.1776,-0.1744,-0.1727,-0.1718,-0.1677,-0.1586,-0.1464,-0.1427,-0.1339,-0.1275,-0.1263,-0.1256,-0.1284,-0.1265,-0.137,-0.1363,-0.1145,-0.1145,-0.1145,-0.1145,-0.1146,-0.1146,-0.1572,-0.1526,-0.1538,-0.1569,-0.1614,-0.1584,-0.1575,-0.1515,-0.1461,-0.1355,-0.1317,-0.1278,-0.1282,-0.1331,-0.1235,-0.1174,-0.1167,-0.1121,-0.1165,-0.126,-0.1285,-0.1308,-0.1307,-0.1081,-0.1081,-0.1003,-0.1003,-0.1003]},{"header":{"parameterUnit":"m.s-1","parameterCategory":2,"la1":30.2991,"la2":30.254,"lo1":-89.0895,"lo2":-89.0444,"dy":0.0017,"dx":0.0017,"nx":28,"ny":28,"refTime":"2025-08-04T09:00:00:Z","depth":"0","parameterNumber":3,"parameterNumberName":"V-component_of_CURRENTS"},"data":[0,0,0,0,0,0,0,0,0,0,0,0,0,0,0,0,0,0,0,0,0,0,0,0,0,0,0,0,0,0,0,0,0,0,0,0,0,0,0,0,0,0,0,0,0,0,0,0,0,0,0,0,0,0,0,0,0,0,-0.0227,-0.0226,0,-0.0044,-0.0042,-0.004,0.0109,0.0111,0.0112,0.0113,0.0303,0.0307,0.0311,0,0,0,0,0,0,0,0,0,0,0,0,0,-0.0398,-0.0396,-0.0228,-0.0225,-0.0223,-0.0044,-0.0042,-0.0039,0.0109,0.0111,0.0112,0.0114,0.0302,0.0307,0.0311,0,0,0,0,0,0,0,0,0,0,0,0,0,-0.028,-0.0396,-0.0228,-0.0129,-0.0118,-0.0045,-0.0042,-0.0038,0.0109,0.0111,0.0113,0.0115,0.0301,0.0306,0.0312,0.0303,0,0,0.0329,0.0331,0,0,0,0,0,0,0,0,-0.0287,-0.0273,-0.0145,-0.0135,-0.0123,0.0011,-0.0032,0.0076,0.0108,0.0024,0.0113,0.0116,0.0204,0.0217,0.0249,0.0312,0.032,0.0329,0.0333,0.0335,0.0337,0,0,0,0,0,0,0,-0.0295,-0.028,-0.0154,-0.0143,-0.013,-0.0076,-0.0057,-0.0011,0.01,0.0031,0.0042,0.006,0.021,0.0243,0.0254,0.0323,0.0329,0.0334,0.0337,0.034,0.0453,0.0452,0,0,0,0,0,0,-0.0325,-0.0288,-0.016,-0.0148,-0.0203,-0.0075,-0.0053,-0.0033,0.01,0.0122,0.0058,0.0066,0.0232,0.0248,0.0262,0.0298,0.0335,0.034,0.0343,0.0453,0.0453,0.0452,0,0,0,0,0,0,-0.0329,-0.0315,-0.0167,-0.0215,-0.0192,-0.0074,-0.0053,-0.0031,0.0006,0.012,0.0143,0.0073,0.0235,0.0254,0.0311,0.0305,0.0343,0.0348,0.0454,0.0453,0.0453,0.0345,0,0,0,0,0,0,-0.0335,-0.0318,-0.0321,-0.0217,-0.0191,-0.0133,-0.0054,-0.0029,0.0013,0.0026,0.014,0.016,0.0238,0.0302,0.0316,0.0313,0.0352,0.0454,0.0453,0.0453,0.0349,0.0341,0.0334,0,0,0,0,0,-0.0342,-0.0351,-0.0322,-0.0307,-0.0196,-0.0134,-0.0116,-0.0023,0.0011,0.0018,0.0103,0.0157,0.0308,0.0305,0.0323,0.0321,0.0454,0.0453,0.0453,0.0353,0.0343,0.0335,0,0,0,0,0,0,-0.0423,-0.0334,-0.03,-0.0281,-0.022,-0.0109,-0.0096,-0.0042,0.003,0.0042,0.0149,0.0174,0.0217,0.0279,0.0274,0.0353,0.0391,0.0393,0.0309,0.03,0.0293,0.0287,0.0357,0,0,0,0,0,-0.0448,-0.0432,-0.0341,-0.0329,-0.0305,-0.0209,-0.0176,-0.0117,-0.0037,-0.0003,0.0076,0.0159,0.0224,0.027,0.0328,0.0368,0.0405,0.0381,0.0373,0.0366,0.0374,0.0423,0.042,0.045,0.045,0.045,0,0,-0.0476,-0.0427,-0.0417,-0.0347,-0.0291,-0.0262,-0.0183,-0.0142,-0.0111,0.0002,0.0054,0.0121,0.0224,0.0275,0.0301,0.0332,0.0367,0.0365,0.0359,0.037,0.0422,0.0419,0.0416,0.0449,0.0449,0.0449,0,0,-0.0522,-0.0485,-0.0483,-0.0443,-0.0374,-0.0315,-0.0314,-0.0218,-0.0169,-0.0118,-0.0028,0.0046,0.0134,0.0227,0.0281,0.0265,0.0311,0.0269,0.0247,0.0293,0.0291,0.029,0.0286,0.0285,0.0284,0.0283,0.0283,0,-0.0558,-0.0536,-0.0476,-0.0464,-0.0434,-0.0349,-0.0338,-0.0285,-0.0183,-0.0147,-0.0117,0.0034,0.0122,0.021,0.0221,0.025,0.0258,0.027,0.0282,0.0282,0.0282,0.0279,0.028,0.0278,0.0279,0.0279,0.028,0,-0.059,-0.0577,-0.0578,-0.0531,-0.05,-0.048,-0.0402,-0.0372,-0.0314,-0.0244,-0.0168,-0.0049,0.0055,0.0087,0.0159,0.021,0.0203,0.0248,0.0299,0.0273,0.0271,0.0273,0.0271,0.0272,0.0274,0.0275,0,0,-0.0645,-0.0606,-0.0605,-0.0595,-0.0531,-0.0506,-0.0479,-0.041,-0.0379,-0.0297,-0.0244,-0.0113,-0.0048,0.0018,0.0109,0.0171,0.0181,0.0208,0.0213,0.0192,0.023,0.0275,0.0283,0.0214,0.0215,0.0216,0.021,0,-0.0679,-0.0683,-0.0645,-0.0646,-0.0637,-0.057,-0.0545,-0.0481,-0.0412,-0.035,-0.0229,-0.0151,-0.0076,-0.0023,0.0045,0.0155,0.019,0.0176,0.0271,0.0273,0.0309,0.029,0.0335,0.0339,0.0213,0.0213,0.0213,0,-0.0709,-0.0707,-0.0717,-0.069,-0.0679,-0.067,-0.0613,-0.0577,-0.0478,-0.0423,-0.0334,-0.0244,-0.0128,-0.0068,0.0077,0.0054,0.0129,0.0203,0.0205,0.0296,0.0326,0.0357,0.035,0.0461,0.0218,0.0218,0.0218,0,-0.0762,-0.0751,-0.0763,-0.0755,-0.0715,-0.0708,-0.0681,-0.06,-0.0563,-0.0468,-0.043,-0.0304,-0.0219,-0.0119,0.0055,0.0051,0.0198,0.0215,0.031,0.0311,0.04,0.0409,0.0513,0.0295,0.0295,0.0295,0.0295,0,-0.0801,-0.0809,-0.0795,-0.0802,-0.0813,-0.0764,-0.0752,-0.0705,-0.0631,-0.0579,-0.0472,-0.0396,-0.0224,-0.0105,0.0013,0.0176,0.0162,0.0301,0.0327,0.0359,0.0364,0.0508,0.055,0.0295,0.0295,0.0295,0.0295,0,-0.0848,-0.0838,-0.0855,-0.0841,-0.0839,-0.0848,-0.0813,-0.0794,-0.0722,-0.0657,-0.063,-0.0467,-0.0306,-0.0146,0.0046,0.0142,0.0359,0.0342,0.0346,0.0374,0.055,0.0583,0.0716,0.0784,0.0409,0.0411,0.0412,0,-0.0869,-0.0885,-0.0899,-0.0915,-0.0911,-0.0915,-0.091,-0.0849,-0.0816,-0.0681,-0.0647,-0.0481,-0.0326,-0.0058,0.0149,0.0327,0.0429,0.0458,0.0486,0.057,0.0625,0.0648,0.0697,0.0529,0.0531,0.0532,0.0534,0,-0.0906,-0.0915,-0.0931,-0.097,-0.0984,-0.0991,-0.0973,-0.0954,-0.0857,-0.077,-0.0616,-0.0487,-0.0222,0.0044,0.028,0.0396,0.0547,0.0495,0.0603,0.0749,0.0763,0.0837,0.048,0.0548,0.0547,0.0546,0.0545,0.0544,-0.0929,-0.0957,-0.0981,-0.1016,-0.1038,-0.1034,-0.0965,-0.0925,-0.0833,-0.0611,-0.0576,-0.0297,-0.0032,0.0328,0.0452,0.0719,0.0679,0.0797,0.0827,0.0839,0.0934,0.0587,0.0684,0.0684,0.0683,0.0682,0.0682,0,-0.0944,-0.0975,-0.1017,-0.1042,-0.1055,-0.1043,-0.0969,-0.0834,-0.0658,-0.0498,-0.031,0.0037,0.0336,0.0592,0.0909,0.1047,0.1077,0.1112,0.1162,0.1195,0.0912,0.095,0.1087,0.1086,0.1086,0.1086,0.1086,0.1086,-0.0949,-0.099,-0.1015,-0.104,-0.1032,-0.0889,-0.079,-0.06,-0.0417,-0.0074,0.0186,0.0332,0.0596,0.1031,0.133,0.1357,0.1477,0.1463,0.1515,0.1329,0.1301,0.1276,0.1324,0.1536,0.1537,0.1806,0.1808,0.181]}],[{"header":{"parameterUnit":"m.s-1","parameterCategory":2,"la1":30.2991,"la2":30.254,"lo1":-89.0895,"lo2":-89.0444,"dy":0.0017,"dx":0.0017,"nx":28,"ny":28,"refTime":"2025-08-04T09:00:00:Z","depth":"2","parameterNumber":2,"parameterNumberName":"U-component_of_CURRENTS"},"data":[0,0,0,0,0,0,0,0,0,0,0,0,0,0,0,0,0,0,0,0,0,0,0,0,0,0,0,0,0,0,0,0,0,0,0,0,0,0,0,0,0,0,0,0,0,0,0,0,0,0,0,0,0,0,0,0,0,0,-0.2417,-0.2418,0,-0.2536,-0.2537,-0.2539,-0.2546,-0.2545,-0.2543,-0.2542,-0.2572,-0.2574,-0.2576,0,0,0,0,0,0,0,0,0,0,0,0,0,-0.2267,-0.2269,-0.2417,-0.2418,-0.2419,-0.2535,-0.2537,-0.2539,-0.2546,-0.2545,-0.2543,-0.2541,-0.2572,-0.2574,-0.2577,0,0,0,0,0,0,0,0,0,0,0,0,0,-0.2354,-0.227,-0.2416,-0.2437,-0.244,-0.2535,-0.2537,-0.2539,-0.2547,-0.2545,-0.2543,-0.2541,-0.2571,-0.2574,-0.2577,-0.2639,0,0,-0.2587,-0.2588,0,0,0,0,0,0,0,0,-0.2349,-0.236,-0.2432,-0.2435,-0.2439,-0.2523,-0.2496,-0.2568,-0.2547,-0.2507,-0.2542,-0.254,-0.2549,-0.2554,-0.2583,-0.264,-0.2642,-0.2587,-0.2589,-0.259,-0.2591,0,0,0,0,0,0,0,-0.2343,-0.2355,-0.2464,-0.2434,-0.2438,-0.2464,-0.2474,-0.251,-0.2537,-0.251,-0.2511,-0.2524,-0.255,-0.258,-0.2583,-0.2642,-0.2587,-0.259,-0.2592,-0.2593,-0.2714,-0.2715,0,0,0,0,0,0,-0.2326,-0.2349,-0.2461,-0.2468,-0.2387,-0.2468,-0.2479,-0.2499,-0.2539,-0.2543,-0.2525,-0.2524,-0.2576,-0.258,-0.2584,-0.2586,-0.259,-0.2593,-0.2595,-0.2713,-0.2714,-0.2716,0,0,0,0,0,0,-0.2323,-0.2335,-0.2456,-0.241,-0.2427,-0.2472,-0.2495,-0.2502,-0.2522,-0.2551,-0.2553,-0.2536,-0.2574,-0.258,-0.2605,-0.2589,-0.2595,-0.2598,-0.2711,-0.2713,-0.2715,-0.2636,0,0,0,0,0,0,-0.2318,-0.2333,-0.2349,-0.2409,-0.2429,-0.2484,-0.2498,-0.2506,-0.2534,-0.2532,-0.2562,-0.2563,-0.2573,-0.26,-0.2608,-0.2594,-0.26,-0.271,-0.2712,-0.2714,-0.2637,-0.2635,-0.2633,0,0,0,0,0,-0.2312,-0.2324,-0.235,-0.2363,-0.2447,-0.2484,-0.2496,-0.2522,-0.2536,-0.2535,-0.2565,-0.2561,-0.2621,-0.2604,-0.2613,-0.2599,-0.2708,-0.2711,-0.2714,-0.2637,-0.2635,-0.2633,0,0,0,0,0,0,-0.2272,-0.2329,-0.2357,-0.2389,-0.2425,-0.2484,-0.2495,-0.2525,-0.2555,-0.2556,-0.258,-0.2584,-0.2601,-0.2629,-0.2609,-0.2648,-0.2665,-0.267,-0.2604,-0.2602,-0.26,-0.2537,-0.2603,0,0,0,0,0,-0.2274,-0.2293,-0.2353,-0.2377,-0.2394,-0.2452,-0.2476,-0.2497,-0.2532,-0.2544,-0.2576,-0.261,-0.2628,-0.2634,-0.2666,-0.269,-0.2668,-0.2691,-0.2689,-0.2687,-0.2647,-0.2584,-0.257,-0.2725,-0.2725,-0.2725,0,0,-0.2268,-0.2301,-0.2315,-0.237,-0.2405,-0.2418,-0.2459,-0.2488,-0.2493,-0.2544,-0.2567,-0.2608,-0.2638,-0.2655,-0.2665,-0.2667,-0.2647,-0.2691,-0.2688,-0.2648,-0.2585,-0.2569,-0.2554,-0.2727,-0.2727,-0.2727,0,0,-0.2244,-0.2292,-0.2293,-0.232,-0.2367,-0.2399,-0.2403,-0.2469,-0.2484,-0.2527,-0.2555,-0.2565,-0.2641,-0.2623,-0.263,-0.2641,-0.2643,-0.269,-0.2616,-0.2556,-0.254,-0.2526,-0.2521,-0.2506,-0.2682,-0.2682,-0.2682,0,-0.2234,-0.2248,-0.2298,-0.2303,-0.2318,-0.2381,-0.238,-0.241,-0.2476,-0.2484,-0.2519,-0.2585,-0.2602,-0.2574,-0.2578,-0.2623,-0.2625,-0.2612,-0.2544,-0.253,-0.2516,-0.2514,-0.2499,-0.2678,-0.2679,-0.2679,-0.2679,0,-0.2202,-0.2221,-0.222,-0.2244,-0.2268,-0.2276,-0.2322,-0.235,-0.2396,-0.2427,-0.2442,-0.2479,-0.2502,-0.2524,-0.2551,-0.2485,-0.2533,-0.2547,-0.2528,-0.2494,-0.2497,-0.2483,-0.2673,-0.2674,-0.2676,-0.2676,0,0,-0.2137,-0.2189,-0.2182,-0.2195,-0.2236,-0.2253,-0.2258,-0.2275,-0.2279,-0.2333,-0.2328,-0.2343,-0.2375,-0.2384,-0.2422,-0.2369,-0.2289,-0.2421,-0.2419,-0.2378,-0.2205,-0.2157,-0.2137,-0.2298,-0.2295,-0.2292,-0.2259,0,-0.2087,-0.2087,-0.2121,-0.2116,-0.2122,-0.2176,-0.2179,-0.2206,-0.2245,-0.2265,-0.2268,-0.229,-0.2319,-0.2344,-0.2285,-0.2315,-0.2243,-0.23,-0.2276,-0.2276,-0.2202,-0.2114,-0.1973,-0.1923,-0.2245,-0.2242,-0.2241,0,-0.202,-0.2036,-0.2026,-0.2069,-0.2074,-0.2078,-0.2099,-0.2115,-0.2139,-0.2175,-0.2172,-0.2214,-0.217,-0.2199,-0.2135,-0.2187,-0.2163,-0.2163,-0.2162,-0.2116,-0.2196,-0.2006,-0.1885,-0.2216,-0.2218,-0.222,-0.2222,0,-0.1935,-0.196,-0.1951,-0.1963,-0.2018,-0.2019,-0.2044,-0.2077,-0.2098,-0.2112,-0.214,-0.211,-0.2121,-0.2067,-0.2081,-0.2112,-0.2013,-0.2056,-0.1972,-0.1974,-0.184,-0.1834,-0.1926,-0.1926,-0.1926,-0.1926,-0.1926,0,-0.1858,-0.1849,-0.1914,-0.191,-0.1909,-0.1965,-0.1966,-0.1997,-0.2034,-0.2038,-0.2083,-0.2076,-0.2083,-0.206,-0.2045,-0.1969,-0.1973,-0.1912,-0.1925,-0.1821,-0.1813,-0.2057,-0.2073,-0.1925,-0.1925,-0.1925,-0.1926,0,-0.1765,-0.1801,-0.1805,-0.1857,-0.1871,-0.1873,-0.1936,-0.1939,-0.1991,-0.1998,-0.2005,-0.2047,-0.2012,-0.2014,-0.1953,-0.1924,-0.186,-0.1817,-0.1725,-0.1723,-0.188,-0.1893,-0.1718,-0.1715,-0.1713,-0.1711,-0.1709,0,-0.1719,-0.171,-0.1762,-0.1764,-0.1785,-0.1808,-0.1821,-0.1898,-0.1909,-0.1965,-0.1952,-0.1952,-0.1906,-0.1835,-0.1778,-0.1709,-0.1771,-0.1545,-0.1524,-0.1809,-0.1841,-0.1858,-0.1874,-0.1357,-0.1352,-0.1349,-0.1346,0,-0.1632,-0.1652,-0.1661,-0.1673,-0.1685,-0.171,-0.1738,-0.1748,-0.1821,-0.1832,-0.1817,-0.1785,-0.173,-0.1592,-0.1529,-0.1474,-0.1553,-0.1468,-0.1734,-0.1434,-0.1465,-0.1499,-0.1526,-0.1313,-0.1317,-0.1319,-0.1321,-0.1322,-0.156,-0.155,-0.1561,-0.1564,-0.1586,-0.1587,-0.154,-0.1584,-0.1584,-0.1552,-0.1628,-0.1525,-0.1512,-0.1321,-0.1257,-0.1219,-0.1324,-0.1268,-0.128,-0.1296,-0.1262,-0.1286,-0.1099,-0.1101,-0.1103,-0.1104,-0.1105,0,-0.1459,-0.1453,-0.145,-0.1441,-0.1404,-0.1461,-0.1453,-0.1376,-0.131,-0.1334,-0.1293,-0.1153,-0.1059,-0.1053,-0.0938,-0.0927,-0.0931,-0.0893,-0.0897,-0.0928,-0.0956,-0.0906,-0.0648,-0.0647,-0.0646,-0.0645,0,0,-0.1398,-0.1353,-0.1355,-0.1256,-0.1236,-0.1124,-0.1076,-0.1015,-0.0985,-0.0907,-0.0865,-0.094,-0.0976,-0.08,-0.0776,-0.0685,-0.0794,-0.0647,-0.1008,-0.1039,-0.1065,-0.1162,-0.1118,0,0,0,0,0]},{"header":{"parameterUnit":"m.s-1","parameterCategory":2,"la1":30.2991,"la2":30.254,"lo1":-89.0895,"lo2":-89.0444,"dy":0.0017,"dx":0.0017,"nx":28,"ny":28,"refTime":"2025-08-04T09:00:00:Z","depth":"2","parameterNumber":3,"parameterNumberName":"V-component_of_CURRENTS"},"data":[0,0,0,0,0,0,0,0,0,0,0,0,0,0,0,0,0,0,0,0,0,0,0,0,0,0,0,0,0,0,0,0,0,0,0,0,0,0,0,0,0,0,0,0,0,0,0,0,0,0,0,0,0,0,0,0,0,0,-0.0293,-0.0292,0,-0.0198,-0.0197,-0.0196,-0.0123,-0.0123,-0.0122,-0.0121,0.001,0.0013,0.0016,0,0,0,0,0,0,0,0,0,0,0,0,0,-0.0355,-0.0354,-0.0293,-0.0292,-0.0291,-0.0199,-0.0197,-0.0196,-0.0123,-0.0123,-0.0122,-0.0121,0.0009,0.0013,0.0016,0,0,0,0,0,0,0,0,0,0,0,0,0,-0.0301,-0.0354,-0.0293,-0.0244,-0.0239,-0.0199,-0.0197,-0.0195,-0.0123,-0.0122,-0.0122,-0.0121,0.0008,0.0012,0.0017,0.0025,0,0,0.003,0.0032,0,0,0,0,0,0,0,0,-0.0304,-0.0298,-0.0252,-0.0247,-0.0241,-0.0172,-0.0171,-0.012,-0.0124,-0.0167,-0.0121,-0.012,-0.0048,-0.0039,-0.0023,0.0031,0.0036,0.003,0.0033,0.0035,0.0036,0,0,0,0,0,0,0,-0.0308,-0.0302,-0.0255,-0.0251,-0.0245,-0.0207,-0.0199,-0.0161,-0.0113,-0.0163,-0.0157,-0.0148,-0.0045,-0.0028,-0.002,0.0038,0.003,0.0034,0.0037,0.0039,0.0155,0.0156,0,0,0,0,0,0,-0.0325,-0.0306,-0.0258,-0.0252,-0.0272,-0.0207,-0.0198,-0.0195,-0.0114,-0.0101,-0.0149,-0.0145,-0.0036,-0.0025,-0.0015,0.0023,0.0035,0.0039,0.0042,0.0155,0.0155,0.0156,0,0,0,0,0,0,-0.0327,-0.0322,-0.0262,-0.0277,-0.0267,-0.0208,-0.0204,-0.0194,-0.0174,-0.0104,-0.009,-0.0141,-0.0035,-0.0021,0.0018,0.0028,0.0041,0.0045,0.0154,0.0155,0.0156,0.0084,0,0,0,0,0,0,-0.0329,-0.0323,-0.0328,-0.0278,-0.0266,-0.0244,-0.0205,-0.0192,-0.017,-0.0164,-0.0093,-0.0079,-0.0033,0.0011,0.0022,0.0035,0.0048,0.0154,0.0155,0.0155,0.0086,0.0083,0.008,0,0,0,0,0,-0.0332,-0.0341,-0.0329,-0.0323,-0.0275,-0.0244,-0.0235,-0.0189,-0.0171,-0.0167,-0.0119,-0.0082,0.0026,0.0014,0.0027,0.0041,0.0153,0.0154,0.0155,0.0088,0.0083,0.008,0,0,0,0,0,0,-0.0371,-0.0333,-0.0319,-0.0317,-0.0287,-0.0232,-0.0224,-0.0197,-0.0157,-0.015,-0.0086,-0.0069,-0.0028,0.0013,-0.0001,0.008,0.01,0.0103,0.0044,0.004,0.0037,0.0035,0.0052,0,0,0,0,0,-0.0385,-0.0382,-0.034,-0.0341,-0.0328,-0.028,-0.0263,-0.0234,-0.0191,-0.0173,-0.0122,-0.0064,-0.0014,0.0016,0.0063,0.0098,0.0131,0.0121,0.0118,0.0115,0.0124,0.0162,0.0162,0.0159,0.0159,0.0159,0,0,-0.0402,-0.0381,-0.038,-0.0349,-0.0322,-0.0306,-0.0267,-0.0247,-0.0229,-0.0165,-0.0129,-0.008,-0.0009,0.0034,0.0058,0.0071,0.0132,0.0116,0.0112,0.0124,0.0163,0.0163,0.0163,0.016,0.016,0.016,0,0,-0.0431,-0.0416,-0.042,-0.0398,-0.0363,-0.0332,-0.0331,-0.028,-0.0254,-0.022,-0.0163,-0.0113,-0.0042,0.0017,0.0054,0.0061,0.0107,0.0081,0.0069,0.0104,0.0105,0.0105,0.0135,0.0139,0.0085,0.0085,0.0085,0,-0.0455,-0.0449,-0.0418,-0.0411,-0.0394,-0.0348,-0.0343,-0.0312,-0.0255,-0.023,-0.0217,-0.0099,-0.0047,0.0024,0.0033,0.0054,0.0078,0.0072,0.0098,0.0099,0.0101,0.0132,0.0137,0.0081,0.0082,0.0082,0.0083,0,-0.0477,-0.0473,-0.0474,-0.0449,-0.0429,-0.042,-0.0372,-0.035,-0.0316,-0.0273,-0.0209,-0.0139,-0.0063,-0.0037,0.0002,0.0053,0.0066,0.0079,0.01,0.0097,0.013,0.0136,0.0077,0.0078,0.0079,0.008,0,0,-0.0533,-0.0497,-0.0499,-0.0491,-0.0447,-0.0434,-0.0408,-0.0363,-0.034,-0.0282,-0.024,-0.0151,-0.0107,-0.006,-0.0003,0.0037,0.0065,0.0062,0.0066,0.0078,0.0138,0.0162,0.0171,0.0076,0.0077,0.0078,0.0151,0,-0.056,-0.0562,-0.0529,-0.0527,-0.0521,-0.0471,-0.0448,-0.0401,-0.0353,-0.0303,-0.0221,-0.0163,-0.0117,-0.0082,-0.0035,0.0046,0.0081,0.0044,0.0153,0.0157,0.0167,0.018,0.0169,0.0234,0.0157,0.0158,0.0159,0,-0.0587,-0.0584,-0.0588,-0.0558,-0.0551,-0.0542,-0.0494,-0.0466,-0.0384,-0.0344,-0.0269,-0.0203,-0.0114,-0.0092,0.0037,0.0009,0.0069,0.0123,0.0127,0.0182,0.0193,0.0231,0.0249,0.0171,0.017,0.0169,0.0168,0,-0.0636,-0.0622,-0.0629,-0.062,-0.058,-0.0572,-0.055,-0.048,-0.0453,-0.0369,-0.0337,-0.0226,-0.0168,-0.0078,0.0047,0.0038,0.0178,0.0177,0.0254,0.0256,0.0288,0.0291,0.0254,0.0253,0.0253,0.0253,0.0253,0,-0.0671,-0.0675,-0.0657,-0.0661,-0.0669,-0.0621,-0.061,-0.0568,-0.0501,-0.046,-0.0365,-0.0303,-0.0163,-0.0058,0.0038,0.0177,0.0172,0.0262,0.0282,0.0263,0.0263,0.0245,0.0243,0.0256,0.0255,0.0255,0.0254,0,-0.0714,-0.0701,-0.0712,-0.0693,-0.0692,-0.0698,-0.0664,-0.0647,-0.0582,-0.0526,-0.0502,-0.0359,-0.0214,-0.0073,0.009,0.0168,0.0292,0.0337,0.0306,0.0321,0.0343,0.0336,0.0423,0.0425,0.0426,0.0427,0.0428,0,-0.0731,-0.0744,-0.0752,-0.0766,-0.0761,-0.0763,-0.0758,-0.0699,-0.067,-0.0549,-0.052,-0.0371,-0.0239,0.0007,0.0175,0.0348,0.034,0.042,0.0405,0.0352,0.0363,0.0355,0.0347,0.0415,0.0416,0.0416,0.0417,0,-0.0766,-0.0773,-0.0785,-0.0821,-0.0833,-0.0838,-0.0822,-0.0808,-0.072,-0.065,-0.0518,-0.0404,-0.0159,0.0054,0.0269,0.0365,0.0392,0.0437,0.0406,0.0371,0.035,0.0358,0.035,0.0422,0.0422,0.0421,0.0421,0.0421,-0.0791,-0.0816,-0.0837,-0.0869,-0.089,-0.0894,-0.0893,-0.0848,-0.0785,-0.0657,-0.0524,-0.0336,-0.014,0.0182,0.0337,0.0467,0.0461,0.0488,0.0484,0.048,0.0463,0.0445,0.0532,0.0532,0.0532,0.0532,0.0532,0,-0.0811,-0.084,-0.0877,-0.091,-0.0942,-0.094,-0.092,-0.0895,-0.0818,-0.0669,-0.0516,-0.0248,-0.0005,0.0182,0.04,0.053,0.0513,0.054,0.0494,0.0489,0.0484,0.0465,0.0536,0.0536,0.0537,0.0537,0,0,-0.0821,-0.0861,-0.0883,-0.0943,-0.0972,-0.0992,-0.0983,-0.0916,-0.0818,-0.0649,-0.0488,-0.0272,-0.0019,0.0137,0.0312,0.0421,0.0407,0.0426,0.0411,0.0329,0.0322,0.0448,0.0412,0,0,0,0,0]}],[{"header":{"parameterUnit":"m.s-1","parameterCategory":2,"la1":30.2991,"la2":30.254,"lo1":-89.0895,"lo2":-89.0444,"dy":0.0017,"dx":0.0017,"nx":28,"ny":28,"refTime":"2025-08-04T09:00:00:Z","depth":"4","parameterNumber":2,"parameterNumberName":"U-component_of_CURRENTS"},"data":[0,0,0,0,0,0,0,0,0,0,0,0,0,0,0,0,0,0,0,0,0,0,0,0,0,0,0,0,0,0,0,0,0,0,0,0,0,0,0,0,0,0,0,0,0,0,0,0,0,0,0,0,0,0,0,0,0,0,-0.1398,-0.1399,0,-0.1428,-0.1429,-0.1429,-0.1437,-0.1437,-0.1437,-0.1437,-0.1469,-0.147,-0.1471,0,0,0,0,0,0,0,0,0,0,0,0,0,-0.1358,-0.1358,-0.1398,-0.1399,-0.1399,-0.1428,-0.1429,-0.1429,-0.1437,-0.1437,-0.1437,-0.1437,-0.1469,-0.147,-0.1471,0,0,0,0,0,0,0,0,0,0,0,0,0,-0.1378,-0.1358,-0.1398,-0.1408,-0.141,-0.1428,-0.1429,-0.1429,-0.1437,-0.1437,-0.1437,-0.1437,-0.1469,-0.147,-0.1471,-0.1479,0,0,-0.1475,-0.1476,0,0,0,0,0,0,0,0,-0.1377,-0.138,-0.1406,-0.1408,-0.1409,-0.1431,-0.1426,-0.1446,-0.1437,-0.1424,-0.1437,-0.1437,-0.1458,-0.146,-0.1463,-0.148,-0.1482,-0.1475,-0.1476,-0.1477,-0.1477,0,0,0,0,0,0,0,-0.1376,-0.1378,-0.1408,-0.1407,-0.1409,-0.1415,-0.1418,-0.143,-0.1439,-0.1425,-0.1426,-0.1433,-0.1459,-0.1462,-0.1464,-0.1482,-0.1475,-0.1477,-0.1477,-0.1478,-0.155,-0.1551,0,0,0,0,0,0,-0.1376,-0.1377,-0.1407,-0.1409,-0.1395,-0.1416,-0.1419,-0.1422,-0.1439,-0.1442,-0.1433,-0.1433,-0.1459,-0.1462,-0.1465,-0.1497,-0.1477,-0.1478,-0.1479,-0.1549,-0.155,-0.1551,0,0,0,0,0,0,-0.1375,-0.1378,-0.1406,-0.1396,-0.14,-0.1417,-0.142,-0.1423,-0.1448,-0.1445,-0.1448,-0.1459,-0.1459,-0.1463,-0.149,-0.1498,-0.1479,-0.148,-0.1547,-0.1549,-0.1551,-0.1547,0,0,0,0,0,0,-0.1373,-0.1377,-0.1393,-0.1396,-0.1401,-0.1418,-0.1421,-0.1423,-0.1451,-0.1453,-0.1468,-0.1469,-0.146,-0.1488,-0.1491,-0.1499,-0.1481,-0.1546,-0.1548,-0.155,-0.1546,-0.1549,-0.1551,0,0,0,0,0,-0.1372,-0.1386,-0.1393,-0.1397,-0.1416,-0.1419,-0.1422,-0.1432,-0.1453,-0.1457,-0.1476,-0.147,-0.1504,-0.149,-0.1493,-0.1502,-0.1545,-0.1548,-0.155,-0.1545,-0.1548,-0.1551,0,0,0,0,0,0,-0.1385,-0.1388,-0.1396,-0.1414,-0.1419,-0.1421,-0.144,-0.145,-0.1469,-0.1484,-0.1484,-0.1486,-0.1512,-0.1516,-0.1501,-0.1532,-0.1524,-0.1528,-0.1519,-0.1522,-0.1525,-0.15,-0.1482,0,0,0,0,0,-0.1394,-0.1403,-0.1405,-0.1424,-0.1431,-0.1443,-0.1455,-0.146,-0.1473,-0.1483,-0.1498,-0.1516,-0.1523,-0.1531,-0.1541,-0.156,-0.1555,-0.157,-0.1573,-0.1575,-0.1559,-0.1564,-0.1564,-0.156,-0.156,-0.156,0,0,-0.1411,-0.1412,-0.1422,-0.1428,-0.1441,-0.1448,-0.145,-0.1472,-0.1478,-0.1484,-0.1518,-0.153,-0.1532,-0.1546,-0.1559,-0.1551,-0.1578,-0.1578,-0.1579,-0.1562,-0.1566,-0.1566,-0.1566,-0.1562,-0.1561,-0.1561,0,0,-0.1433,-0.1447,-0.1458,-0.1462,-0.1476,-0.1474,-0.1486,-0.1502,-0.1509,-0.1538,-0.1541,-0.1545,-0.1587,-0.156,-0.1558,-0.1582,-0.1594,-0.1616,-0.1602,-0.1607,-0.1606,-0.1606,-0.1612,-0.1612,-0.1613,-0.1613,-0.1613,0,-0.1458,-0.146,-0.1464,-0.1473,-0.1483,-0.1489,-0.1502,-0.1504,-0.1529,-0.154,-0.1553,-0.1587,-0.1576,-0.1566,-0.1566,-0.1581,-0.1605,-0.1585,-0.1607,-0.1607,-0.1606,-0.1612,-0.1612,-0.1613,-0.1613,-0.1613,-0.1613,0,-0.1468,-0.1486,-0.1497,-0.1503,-0.1515,-0.1525,-0.1527,-0.1547,-0.157,-0.1574,-0.1594,-0.1578,-0.1593,-0.1592,-0.1581,-0.1578,-0.1605,-0.1611,-0.1591,-0.1606,-0.1612,-0.1612,-0.1613,-0.1613,-0.1613,-0.1613,0,0,-0.1463,-0.1498,-0.15,-0.1511,-0.1529,-0.1532,-0.1556,-0.1561,-0.1579,-0.1595,-0.1616,-0.1591,-0.1597,-0.1592,-0.1581,-0.1566,-0.1567,-0.1593,-0.1593,-0.1584,-0.1603,-0.1487,-0.1476,-0.1601,-0.16,-0.16,-0.1613,0,-0.1465,-0.1487,-0.1504,-0.1526,-0.1533,-0.1557,-0.1573,-0.1587,-0.1606,-0.1629,-0.1605,-0.1619,-0.1593,-0.1604,-0.1585,-0.1582,-0.1567,-0.1563,-0.1603,-0.1603,-0.1485,-0.1471,-0.16,-0.1612,-0.1612,-0.1612,-0.1612,0,-0.1437,-0.1458,-0.1487,-0.1527,-0.1536,-0.1555,-0.1585,-0.16,-0.1627,-0.1649,-0.166,-0.1665,-0.1636,-0.162,-0.1597,-0.1615,-0.1603,-0.159,-0.1591,-0.1475,-0.1485,-0.1595,-0.1612,-0.1612,-0.1612,-0.1612,-0.1612,0,-0.1382,-0.143,-0.1454,-0.1466,-0.1519,-0.1546,-0.1573,-0.1609,-0.1622,-0.1662,-0.1685,-0.1682,-0.1673,-0.1667,-0.1623,-0.1637,-0.1606,-0.1622,-0.15,-0.1493,-0.1598,-0.1598,-0.1596,-0.1596,-0.1596,-0.1596,-0.1596,0,-0.1334,-0.1352,-0.1434,-0.1441,-0.1473,-0.1523,-0.1555,-0.159,-0.1634,-0.1634,-0.1684,-0.1666,-0.1689,-0.1673,-0.1649,-0.1558,-0.1626,-0.1477,-0.1476,-0.16,-0.1601,-0.1598,-0.1598,-0.1596,-0.1596,-0.1596,-0.1596,0,-0.1258,-0.1311,-0.1344,-0.1421,-0.1445,-0.1467,-0.1541,-0.1551,-0.1612,-0.1618,-0.1632,-0.1664,-0.1633,-0.1637,-0.1615,-0.1559,-0.1507,-0.1459,-0.1588,-0.1598,-0.1395,-0.1395,-0.1335,-0.1331,-0.1327,-0.1324,-0.1322,0,-0.1219,-0.1229,-0.1321,-0.134,-0.1379,-0.1426,-0.1448,-0.1525,-0.153,-0.1578,-0.1558,-0.1568,-0.1568,-0.1446,-0.1471,-0.143,-0.1401,-0.1389,-0.1375,-0.1356,-0.1363,-0.1369,-0.1374,-0.1316,-0.1315,-0.1314,-0.1313,0,-0.1146,-0.1194,-0.1223,-0.1266,-0.13,-0.1329,-0.1366,-0.1361,-0.1422,-0.1498,-0.1432,-0.1407,-0.1369,-0.1347,-0.1322,-0.1289,-0.141,-0.1351,-0.1359,-0.1345,-0.1333,-0.1344,-0.1353,-0.13,-0.1302,-0.1303,-0.1304,0,-0.1094,-0.1102,-0.1147,-0.117,-0.1213,-0.1201,-0.1241,-0.123,-0.1248,-0.1307,-0.1274,-0.1287,-0.1333,-0.127,-0.1242,-0.1207,-0.1189,-0.1161,-0.1178,-0.1193,-0.1137,-0.11,-0.0973,0,0,0,0,0,-0.1036,-0.1025,-0.1042,-0.1048,-0.1086,-0.1098,-0.1165,-0.1203,-0.1268,-0.1181,-0.1224,-0.1176,-0.1126,-0.1141,-0.1072,-0.1183,-0.1203,-0.1101,-0.1183,-0.123,-0.1245,-0.1191,0,0,0,0,0,0,-0.099,-0.1003,-0.1003,-0.094,-0.0911,-0.0924,-0.0959,-0.1005,-0.0969,-0.1046,-0.1023,-0.1088,-0.1059,-0.1123,-0.1033,-0.104,-0.1067,-0.1124,-0.1121,-0.1222,-0.1235,-0.1247,-0.1196,0,0,0,0,0]},{"header":{"parameterUnit":"m.s-1","parameterCategory":2,"la1":30.2991,"la2":30.254,"lo1":-89.0895,"lo2":-89.0444,"dy":0.0017,"dx":0.0017,"nx":28,"ny":28,"refTime":"2025-08-04T09:00:00:Z","depth":"4","parameterNumber":3,"parameterNumberName":"V-component_of_CURRENTS"},"data":[0,0,0,0,0,0,0,0,0,0,0,0,0,0,0,0,0,0,0,0,0,0,0,0,0,0,0,0,0,0,0,0,0,0,0,0,0,0,0,0,0,0,0,0,0,0,0,0,0,0,0,0,0,0,0,0,0,0,-0.0284,-0.0283,0,-0.0278,-0.0278,-0.0278,-0.0275,-0.0274,-0.0274,-0.0274,-0.0256,-0.0256,-0.0256,0,0,0,0,0,0,0,0,0,0,0,0,0,-0.0279,-0.0279,-0.0284,-0.0283,-0.0283,-0.0278,-0.0278,-0.0278,-0.0275,-0.0274,-0.0274,-0.0274,-0.0256,-0.0256,-0.0255,0,0,0,0,0,0,0,0,0,0,0,0,0,-0.028,-0.0279,-0.0284,-0.0279,-0.0278,-0.0278,-0.0278,-0.0278,-0.0275,-0.0274,-0.0274,-0.0274,-0.0256,-0.0256,-0.0255,-0.026,0,0,-0.0254,-0.0254,0,0,0,0,0,0,0,0,-0.028,-0.0281,-0.028,-0.0279,-0.0278,-0.0275,-0.027,-0.0271,-0.0275,-0.0279,-0.0274,-0.0274,-0.026,-0.0259,-0.0262,-0.0259,-0.0258,-0.0254,-0.0254,-0.0254,-0.0254,0,0,0,0,0,0,0,-0.028,-0.0281,-0.0284,-0.028,-0.0279,-0.0273,-0.0273,-0.027,-0.0273,-0.0278,-0.0277,-0.0273,-0.026,-0.0263,-0.0262,-0.0258,-0.0254,-0.0254,-0.0254,-0.0253,-0.0257,-0.0257,0,0,0,0,0,0,-0.0277,-0.0281,-0.0284,-0.0283,-0.0276,-0.0273,-0.0273,-0.0278,-0.0273,-0.0271,-0.0273,-0.0273,-0.0264,-0.0262,-0.0261,-0.026,-0.0254,-0.0253,-0.0253,-0.0257,-0.0257,-0.0257,0,0,0,0,0,0,-0.0277,-0.0278,-0.0284,-0.0279,-0.0279,-0.0273,-0.0279,-0.0278,-0.0282,-0.0269,-0.0268,-0.0277,-0.0263,-0.0262,-0.0261,-0.026,-0.0253,-0.0253,-0.0256,-0.0257,-0.0257,-0.0262,0,0,0,0,0,0,-0.0277,-0.0278,-0.0285,-0.028,-0.028,-0.0285,-0.0279,-0.0278,-0.0278,-0.0278,-0.0272,-0.027,-0.0263,-0.0261,-0.026,-0.0259,-0.0253,-0.0256,-0.0256,-0.0257,-0.0261,-0.0262,-0.0263,0,0,0,0,0,-0.0278,-0.0287,-0.0286,-0.0286,-0.0288,-0.0285,-0.0285,-0.028,-0.0279,-0.0282,-0.0278,-0.027,-0.0264,-0.0261,-0.026,-0.0258,-0.0256,-0.0256,-0.0257,-0.0261,-0.0262,-0.0263,0,0,0,0,0,0,-0.0292,-0.0287,-0.0286,-0.0294,-0.029,-0.0284,-0.0287,-0.0283,-0.0284,-0.0285,-0.0274,-0.0272,-0.0269,-0.0267,-0.0264,-0.0262,-0.0259,-0.0259,-0.0262,-0.0263,-0.0264,-0.0245,-0.0252,0,0,0,0,0,-0.0297,-0.0304,-0.0295,-0.0304,-0.0301,-0.0296,-0.0295,-0.0292,-0.0288,-0.0289,-0.0282,-0.0278,-0.0272,-0.027,-0.0266,-0.0267,-0.0235,-0.0266,-0.0267,-0.0268,-0.0252,-0.021,-0.0205,-0.026,-0.026,-0.026,0,0,-0.0307,-0.0304,-0.0309,-0.0307,-0.0305,-0.0302,-0.0295,-0.0297,-0.0294,-0.0286,-0.0286,-0.0281,-0.0274,-0.0272,-0.0271,-0.0269,-0.0236,-0.0269,-0.027,-0.0253,-0.021,-0.0205,-0.0199,-0.026,-0.026,-0.026,0,0,-0.0323,-0.0326,-0.0332,-0.0326,-0.032,-0.0314,-0.0314,-0.0307,-0.0305,-0.0304,-0.0295,-0.0289,-0.0287,-0.0277,-0.0272,-0.0278,-0.0242,-0.0281,-0.027,-0.023,-0.0224,-0.0219,-0.0168,-0.0158,-0.0283,-0.0283,-0.0283,0,-0.0337,-0.0342,-0.0334,-0.0333,-0.0328,-0.0318,-0.0319,-0.0314,-0.0308,-0.0298,-0.0305,-0.0282,-0.0286,-0.0264,-0.0271,-0.0278,-0.0242,-0.0266,-0.0229,-0.0223,-0.0218,-0.0166,-0.0155,-0.0283,-0.0283,-0.0283,-0.0283,0,-0.035,-0.0353,-0.0356,-0.0351,-0.0344,-0.0346,-0.033,-0.0325,-0.032,-0.0306,-0.0286,-0.0284,-0.0265,-0.0272,-0.0276,-0.0241,-0.0223,-0.0233,-0.0221,-0.0212,-0.0159,-0.0147,-0.0284,-0.0283,-0.0283,-0.0283,0,0,-0.0387,-0.037,-0.0374,-0.0371,-0.0354,-0.0353,-0.0339,-0.032,-0.0307,-0.0293,-0.0267,-0.0263,-0.0247,-0.0241,-0.0239,-0.0211,-0.0155,-0.0206,-0.0204,-0.0146,-0.0046,-0.0068,-0.0058,-0.0154,-0.0152,-0.015,-0.0022,0,-0.0403,-0.0408,-0.039,-0.0392,-0.0391,-0.0366,-0.0354,-0.0332,-0.0312,-0.0285,-0.0257,-0.0241,-0.0239,-0.0236,-0.0201,-0.0171,-0.0125,-0.0188,-0.007,-0.0066,-0.008,-0.0045,-0.0145,-0.0014,-0.0011,-0.0009,-0.0008,0,-0.042,-0.0421,-0.0427,-0.0409,-0.0406,-0.0405,-0.0377,-0.0364,-0.0312,-0.0293,-0.0246,-0.022,-0.0171,-0.0184,-0.0082,-0.0118,-0.0074,-0.0046,-0.0041,-0.0048,-0.0067,-0.0026,0.0014,0.0012,0.0011,0.0009,0.0008,0,-0.045,-0.0445,-0.0454,-0.0449,-0.0427,-0.0425,-0.0414,-0.037,-0.0356,-0.0297,-0.0276,-0.0196,-0.0174,-0.0092,-0.0034,-0.005,0.0082,0.0062,0.0097,0.0097,0.0081,0.0074,0.0151,0.0151,0.015,0.015,0.015,0,-0.0468,-0.0476,-0.0474,-0.0479,-0.049,-0.0459,-0.0456,-0.0428,-0.0382,-0.0357,-0.0287,-0.0248,-0.0152,-0.007,-0.0004,0.0089,0.0113,0.0122,0.0132,0.0075,0.0066,0.009,0.0082,0.0155,0.0154,0.0153,0.0152,0,-0.0492,-0.0491,-0.0505,-0.0502,-0.0506,-0.0515,-0.0501,-0.049,-0.0442,-0.0404,-0.0386,-0.028,-0.0168,-0.0062,0.0064,0.0108,0.0203,0.0229,0.0181,0.0183,0.0191,0.018,0.0298,0.0298,0.0299,0.0299,0.0299,0,-0.0499,-0.0512,-0.0537,-0.0555,-0.0561,-0.057,-0.0574,-0.0533,-0.0512,-0.0422,-0.04,-0.0287,-0.0209,-0.0018,0.0079,0.0236,0.0234,0.0291,0.023,0.021,0.0209,0.0197,0.0187,0.03,0.03,0.03,0.03,0,-0.0515,-0.0535,-0.055,-0.0595,-0.0617,-0.0628,-0.0625,-0.0612,-0.0548,-0.0511,-0.0396,-0.0286,-0.0159,-0.0016,0.0102,0.0204,0.0259,0.0294,0.0294,0.0237,0.0214,0.0209,0.0198,0.0301,0.0301,0.0301,0.0301,0,-0.0533,-0.0556,-0.0589,-0.0623,-0.066,-0.067,-0.0661,-0.0615,-0.0582,-0.0473,-0.0436,-0.0283,-0.019,-0.0031,0.008,0.0179,0.019,0.0203,0.0207,0.0207,0.0124,0.0077,0.0151,0,0,0,0,0,-0.0542,-0.0571,-0.061,-0.0648,-0.0687,-0.0704,-0.0686,-0.0661,-0.0603,-0.0527,-0.0475,-0.0347,-0.0162,-0.0072,0.0025,0.0061,0.0188,0.0173,0.02,0.0307,0.0306,0.0218,0,0,0,0,0,0,-0.0548,-0.0591,-0.061,-0.0663,-0.0697,-0.0727,-0.0718,-0.0675,-0.0613,-0.054,-0.0432,-0.0356,-0.0171,-0.0227,0.0014,0.0046,0.007,0.0269,0.0271,0.0307,0.0306,0.0305,0.0215,0,0,0,0,0]}]]